Погода в Багдарине

Погода в Багдарине : погода сейчас, прогноз погоды и архив. Всё, что Вы хотите узнать о погоде в Багдарине!

Поиск расширенной информации на нашем сайте:

Другие новости

Новости СМИ2

Главная страница сайта

Новости сайта

02.10.2013

Напоминаем, что на нашем новом сайте вы можете получить высокодетализированные прогнозы погоды по пунктам России, СНГ и мира (включающие важные для авиации метеовеличины, такие как направление и скорость ветра, видимость, явления погоды, количество и форма облачности, нижняя и верхняя граница облачности), а также ознакомиться с разнообразными материалами по авиационной метеорологии и подборкой полезных ссылок на эту тему.

Сайт Метеоцентр.Азия посвящён разработке технологий оптимизации авиаметеорологического обслуживания, включая проектирование и перспективное создание нескольких автоматизированных авиаметеорологических систем:
- система выпуска высокодетальных прогностических карт явлений погоды для нижнего воздушного пространства по России и ближнему зарубежью;
- система верификации прогнозов TAF (выпускаемых синоптиками официальных АМСГ РФ и ближнего зарубежья) и AUTOTAF (выпускаемых сайтом Метеоцентр.Азия) - выявление ошибок, онлайн-сопоставление с фактической погодой METAR, автоматическое внесение коррективов в прогнозы при резком отклонении фактической погоды от прогноза, подсчёт оправдываемости прогнозов по элементам и в целом;
- система обработки, анализа и отображения авиаметеорологической информации для применения провайдерами метеорологической информации.


Погода в Багдарине - сегодня

Время (UTC), дата Ветер
(°,м/с) 
Видим.   Явления Облачность Т
(°С)
Тd
(°С)
f(%) Тe
(°С)
Pmin
(гПа)
dP
(гПа)
Po
(мм)
O2
(г/м3)
Тmin Tmax R s Состояние
почвы
03 26.05.17 160 (Ю) 20000 м    10/3 1000 м средняя 
[Sc diur, vesp|As trans]
+18.4 +4.4 40 +20  1000.7  0.1  676  254           
06 26.05.17 310 (СЗ) н/о    н/о 
+21.1 +5.1 35 +21  999.6  676  252           
09 26.05.17 340 (С) 5{10}  20000 м    9/3 1000 м верхняя 
[Sc|Ci fib]
+21.3 +4.6 33 +21  999.7  0.1  676  252           
12 26.05.17 340 (С) 20000 м    8/0 средняя, верхняя 
[Ac lent|Ci fib]
+17 +4.2 43 +17  1002.2  0.8  677  256    +21.8       
15 26.05.17 тихо ()   н/о    8/0 верхняя 
[Sc|Ci fib]
+7.4 +3 74 +7  1006.9  678  265           
18 26.05.17 тихо ()   н/о    6/0 средняя, верхняя 
[Ac lent|Ci fib]
+3.4 +1.4 87 +3  1008.7  0.1  678  269           
21 26.05.17 тихо ()   20000 м    9/0 средняя, верхняя 
[Ac As|Ci fib]
+4.1 +1.8 85 +4  1008.8  0.4  678  269           
00 27.05.17 140 (ЮВ) 20000 м    6/0 средняя, верхняя 
[Ac As|Ci]
+10.1 +3.6 64 +11  1006.8  0.3  678  263  +3.1        сухая 
03 27.05.17 300 (СЗ) 20000 м  в посл. час ливневой дождь  10/6 1000 м кучево-дожд., средняя, верхняя 
[Cb cap|Ac trans|Ci fib]
+16.4 -1.3 30 +17  1003.1  -1.3  677  257           
12 27.05.17 300 (СЗ) 6-14{14}  20000 м    10/3 1000 м средняя, верхняя 
[Sc diur, vesp|Ac lent|Ci sp]
+10.5 -8 26 +9  1006.7  1.7  678  264    +17.8  0.0     
15 27.05.17 300 (СЗ) 2{15}  н/о    10/3 1000 м средняя 
[Sc diur, vesp|As trans]
+5.6 -10.4 31 +5  1010.6  1.7  679  269           
18 27.05.17 310 (СЗ) н/о    10/0 средняя, верхняя 
[Ac lent|Ci fib]
+3.4 -10.6 35 +2  1013.4  1.7  681  272           
21 27.05.17 300 (СЗ) 20000 м    3/0 верхняя 
[Ci fib]
+3 -11.1 35 +2  1014.5  0.9  681  272           
00 28.05.17 330 (СЗ) 5{14}  20000 м    1/1 1000 м 
[Cu hum]
+6.2 -11.4 27 +4  1013.4  0.2  681  269  +2.5        сухая 
12 28.05.17 300 (СЗ) 1{12}  20000 м    8/5 1000 м кучево-дожд., верхняя 
[Cb cap|Ci sp]
+6.2 -5.9 42 +7  1011.8  0.3  680  269    +10.5       
15 28.05.17 320 (СЗ) 1{11}  н/о    6/4 1000 м средняя, верхняя 
[Sc diur, vesp|Ac As|Ci fib]
+2.8 -3.9 61 +4  1013.3  0.2  681  272           
18 28.05.17 300 (СЗ) н/о    4/0 средняя, верхняя 
[Ac lent|Ci fib]
-1.2 -5.4 73 -1  1013.8  -1.1  680  276           
21 28.05.17 180 (Ю) 20000 м    3/0 верхняя 
[Ci fib]
-2.1 -6.8 70 -2  1013.6  -0.5  679  276           
00 29.05.17 340 (С) 3{10}  20000 м    8/8 1000 м средняя 
[Cu Sc|As trans]
+5.3 -8.9 35 +4  1010.7  0.1  679  269  -3.4        сухая 
15 29.05.17 340 (С) н/о    5/0 верхняя 
[Ci fib]
-1.4 -9 56 -1  1014.8  0.6  680  276           
18 29.05.17 тихо ()   н/о    ясно 
-5.6 -9.6 73 -6  1015.9  -0.6  680  280           
21 29.05.17 тихо ()   20000 м    ясно 
-6.9 -9.9 79 -7  1016.2  -0.3  680  282           
00 30.05.17 330 (СЗ) 4{11}  20000 м    3/0 средняя 
[Ac trans]
+6.2 -9.9 30 +5  1010.3  -0.4  679  268  -8.3        сухая 
03 30.05.17 340 (С) 20000 м    3/1 1000 м верхняя 
[Cu hum|Ci fib]
+9.9 -11.1 22 +9  1007.5  -1.3  678  265           
06 30.05.17 010 (С) 4{11}  20000 м    3/1 1000 м верхняя 
[Cu hum|Ci fib]
+12.6 -12.3 16 +12  1005.3  -1  678  262           
Время (UTC), дата Ветер
(°,м/с) 
Видим.   Явления Облачность Т
(°С)
Тd
(°С)
f(%) Тe
(°С)
Pmin
(гПа)
dP
(гПа)
Po
(мм)
O2
(г/м3)
Тmin Tmax R s Состояние
почвы

Для получения пояснительной информации подведите курсор к названию столбца.

ПОГОДА в Багдарине - архив

Всё, что Вы хотите узнать о погоде в Багдарине - удобно и подробно!

Выберите нужную дату (начиная с 1 января 2015* года) и нажмите кнопку "Найти".
Будут отображены архивные сводки погоды по пункту Багдарин, начиная с указанной даты.


Отображать данные в формате CSV (для использования в таблицах Excel)


Внимание! Наш архив погоды предназначен исключительно для личного некоммерческого использования в познавательных целях. Если Вам необходимы официальные справки о состоянии погоды (для производственных, юридических, коммерческих и т.п. целей), обращайтесь в органы Росгидромета.

*Примечание: данная дата относится к архиву по метеостанциям СССР (Россия, СНГ, Балтия).
Архив по метеостанциям Зарубежной Европы и Азии (кроме Китая) хранится 10 дней, по другим регионам земного шара (Китай, Африка, Америка, Австралия, Океания) - 1 день.

Багдарин - район местоположения метеостанции


Название, широта, долгота, высота метеостанции:
Багдарин 54.5°ш. 113.6°д. 903 м над ур. моря [Российская Федерация]

Дополнительная информация

В oтличие oт бoльшинства пoгoдных сайтoв мы публикуем пoдрoбную метеoинфoрмацию в детальнoм прoфессиoнальнoм фoрмате.

Характеристики температуры и влажнoсти вoздуха измеряются на высoте 2 м в тени вдали oт зданий и деревьев.
Скoрoсть ветра измеряется на высoте 10 м (на урoвне рoста челoвека скoрoсть ветра ниже в 1.5-2 раза). Если метеoстанция нахoдится в гoрoде или в лесу, тo скoрoсть ветра занижена на 2-4 м/с пo сравнению с oткрытым местoм. Скoрoсть ветра над акватoриями крупных рек и oзёр, а также на вершинах хoлмoв на 2-5 м/с выше, чем в oбычных услoвиях.
Атмoсфернoе давление в разных тoчках местнoсти мoжет значительнo oтличаться oт давления на метеoстанции, в зависимoсти oт услoвий рельефа (при пoдъёме на 10 м давление пoнижается примернo на 1 мм рт.ст.).